Zapata, TX

9:04 AM CST on January 22, 2018 (GMT -0600)
Zapata

Weather History for KAPY - October, 2012

Change the Weather History Date:

Sunday, October 28, 2012

  Actual Average (KLRD) Record (KLRD)
Temperature  
Mean Temperature 62 °F -  
Max Temperature 71 °F 79 °F 98 °F (1991)
Min Temperature 53 °F 61 °F 30 °F (1908)
Degree Days  
Heating Degree Days 2    
Growing Degree Days 12 (Base 50)    
Moisture  
Dew Point 45 °F    
Average Humidity 59    
Maximum Humidity 88    
Minimum Humidity 24    
Precipitation  
Precipitation 0.00 in - - ()
Sea Level Pressure  
Sea Level Pressure 30.19 in    
Wind  
Wind Speed 1 mph (NNE)    
Max Wind Speed 8 mph    
Max Gust Speed -    
Visibility 10 miles    
Events      
Averages and records for this station are not official NWS values.
T = Trace of Precipitation, MM = Missing Value Source: NWS Daily Summary

Daily Weather History Graph

Daily Weather History Graph

Search for Another Location

Airport or City:

Trip Planner

Search our weather history database for the weather conditions in past years. The results will help you decide how hot, cold, wet, or windy it might be!

Date:

Astronomy

Oct. 28, 2012 Rise Set
Actual Time 7:44 AM CDT 6:56 PM CDT
Civil Twilight 7:20 AM CDT 7:20 PM CDT
Nautical Twilight 6:53 AM CDT 7:47 PM CDT
Astronomical Twilight 6:26 AM CDT 8:14 PM CDT
Moon 6:14 PM CDT (10/28) 6:41 AM CDT (10/28)
Length of Visible Light 11h 59m
Length of Day
11h 11m
Waxing Gibbous, 99% of the Moon is Illuminated
Oct 28
Waxing Gibbous
Oct 29
Full
Nov 6
Last Quarter
Nov 13
New
Nov 20
First Quarter

Hourly Weather History & Observations

Time (CDT) Temp. Dew Point Humidity Pressure Visibility Wind Dir Wind Speed Gust Speed Precip Events Conditions
12:35 AM 58.6 °F 50.5 °F 74% 30.18 in 10.0 mi Calm Calm - N/A   Overcast
12:55 AM 59.2 °F 49.3 °F 70% 30.18 in 10.0 mi Calm Calm - N/A   Overcast
1:15 AM 59.2 °F 47.8 °F 66% 30.18 in 10.0 mi Calm Calm - N/A   Overcast
1:35 AM 59.2 °F 47.7 °F 66% 30.17 in 10.0 mi Calm Calm - N/A   Overcast
1:55 AM 59.2 °F 47.3 °F 65% 30.17 in 10.0 mi Calm Calm - N/A   Overcast
2:35 AM 59.2 °F 47.1 °F 64% 30.17 in 10.0 mi Calm Calm - N/A   Overcast
3:15 AM 59.2 °F 47.5 °F 65% 30.17 in 10.0 mi Calm Calm - N/A   Overcast
3:55 AM 59.2 °F 47.7 °F 66% 30.18 in 10.0 mi Calm Calm - N/A   Overcast
4:35 AM 59.0 °F 47.8 °F 66% 30.18 in 10.0 mi Calm Calm - N/A   Overcast
5:15 AM 59.0 °F 48.6 °F 68% 30.18 in 10.0 mi Calm Calm - N/A   Overcast
5:35 AM 59.0 °F 48.7 °F 69% 30.18 in 10.0 mi Calm Calm - N/A   Overcast
5:55 AM 59.0 °F 48.6 °F 68% 30.18 in 10.0 mi NNW 3.5 mph - N/A   Overcast
6:15 AM 58.5 °F 48.9 °F 71% 30.19 in 10.0 mi Calm Calm - N/A   Overcast
6:35 AM 58.6 °F 48.4 °F 69% 30.20 in 10.0 mi Calm Calm - N/A   Overcast
6:55 AM 58.5 °F 48.7 °F 70% 30.20 in 10.0 mi Calm Calm - N/A   Overcast
7:15 AM 58.6 °F 46.6 °F 64% 30.21 in 10.0 mi Calm Calm - N/A   Overcast
7:35 AM 58.5 °F 45.9 °F 63% 30.21 in 10.0 mi Calm Calm - N/A   Overcast
7:55 AM 58.5 °F 44.8 °F 60% 30.22 in 10.0 mi Calm Calm - N/A   Overcast
8:15 AM 58.6 °F 45.3 °F 61% 30.23 in 10.0 mi Calm Calm - N/A   Overcast
9:35 AM 60.8 °F 36.1 °F 40% 30.25 in 10.0 mi NNE 6.9 mph - N/A   Overcast
10:35 AM 64.0 °F 36.7 °F 36% 30.25 in 10.0 mi ENE 5.8 mph - N/A   Overcast
10:55 AM 64.4 °F 36.9 °F 36% 30.25 in 10.0 mi NNE 8.1 mph - N/A   Overcast
11:35 AM 64.9 °F 35.1 °F 33% 30.24 in 10.0 mi NE 6.9 mph - N/A   Clear
12:35 PM 67.3 °F 35.8 °F 31% 30.23 in 10.0 mi North 5.8 mph - N/A   Scattered Clouds
12:55 PM 67.8 °F 35.1 °F 30% 30.22 in 10.0 mi NE 6.9 mph - N/A   Scattered Clouds
1:35 PM 68.9 °F 34.2 °F 28% 30.20 in 10.0 mi North 5.8 mph - N/A   Scattered Clouds
2:55 PM 70.9 °F 35.1 °F 27% 30.16 in 10.0 mi North 4.6 mph - N/A   Clear
4:55 PM 71.8 °F 33.4 °F 24% 30.14 in 10.0 mi NE 4.6 mph - N/A   Clear
6:35 PM 68.4 °F 37.6 °F 32% 30.15 in 10.0 mi Calm Calm - N/A   Scattered Clouds
7:55 PM 63.1 °F 41.4 °F 45% 30.16 in 10.0 mi NNE 3.5 mph - N/A   Clear
8:35 PM 58.1 °F 47.7 °F 68% 30.17 in 10.0 mi Calm Calm - N/A   Clear
8:55 PM 59.7 °F 47.5 °F 64% 30.17 in 10.0 mi Calm Calm - N/A   Clear
9:15 PM 57.9 °F 52.2 °F 81% 30.17 in 10.0 mi Calm Calm - N/A   Clear
9:35 PM 57.0 °F 51.8 °F 83% 30.18 in 10.0 mi Calm Calm - N/A   Clear
9:55 PM 56.7 °F 51.4 °F 83% 30.19 in 10.0 mi Calm Calm - N/A   Clear
10:15 PM 54.9 °F 49.1 °F 81% 30.19 in 10.0 mi Calm Calm - N/A   Clear
10:35 PM 55.2 °F 50.2 °F 83% 30.19 in 10.0 mi Calm Calm - N/A   Clear
11:15 PM 53.4 °F 50.0 °F 88% 30.19 in 10.0 mi Calm Calm - N/A   Clear